Regional Weather Roundup
Issued by NWS

Home | Current Version | Previous Version | Graphics & Text | Print | Product List | Glossary On
Versions: 1 2 3 4 5 6 7 8 9 10 11 12 13 14 15 16 17 18 19 20 21 22 23 24 25 26 27 28 29 30 31 32 33 34 35 36 37 38 39 40 41 42 43 44 45 46 47 48 49 50
973
ASUS43 KMPX 240401
RWRMN
WEATHER ROUNDUP FOR MINNESOTA
NATIONAL WEATHER SERVICE TWIN CITIES/CHANHASSEN MN
1000 PM CST MON JAN 23 2017


NOTE: "FAIR" INDICATES FEW OR NO CLOUDS BELOW 12,000 FEET WITH NO
SIGNIFICANT WEATHER AND/OR OBSTRUCTIONS TO VISIBILITY. N/A MEANS
CURRENT SKY AND/OR WEATHER CONDITIONS ARE NOT AVAILABLE.

MNZ060>063-068>070-240500-
   Twin Cities Metro

CITY           SKY/WX    TMP DP  RH WIND       PRES   REMARKS
TWIN CITIES    CLOUDY    33  27  78 NW6       29.85R WCI  28
ST PAUL        CLOUDY    33  31  92 NW5       29.86R WCI  29
CRYSTAL        CLOUDY    33  26  75 NW5       29.84R WCI  29
BLAINE         CLOUDY    34  32  93 W5        29.84R WCI  30
LAKEVILLE        N/A     30  30 100 W3        29.84S
EDEN PRAIRIE   CLOUDY    33  27  78 CALM      29.83S
SOUTH ST PAUL  CLOUDY    33  32  95 CALM      29.85R
LAKE ELMO      CLOUDY    32  32 100 CALM      29.85R
$$
MNZ001>005-007-008-013>017-022>024-027-028-240500-
   Northwest Minnesota

CITY           SKY/WX    TMP DP  RH WIND       PRES   REMARKS
BEMIDJI        CLOUDY    28  23  80 W7        29.80S WCI  21
HALLOCK        CLOUDY    28  25  86 SW9       29.79S WCI  20
ROSEAU         CLOUDY    28  23  80 SW9       29.79S WCI  20
WARROAD        CLOUDY    28  25  86 SW6       29.79S WCI  22
THIEF RVR FALL CLOUDY    27  23  85 W10       29.81S WCI  17
CROOKSTON      CLOUDY    28  25  86 W9        29.83S WCI  20
FOSSTON        CLOUDY    27  21  80 SW3       29.82R
DETROIT LAKES  CLOUDY    30  27  86 NW3       29.82S
MOORHEAD       CLOUDY    30  27  86 CALM      29.84S
PARK RAPIDS    CLOUDY    30  23  75 CALM      29.79F
MAHNOMEN       CLOUDY    28  24  83 W3        29.82R
$$
MNZ006-009>011-018-025>026-240500-
   North Central Minnesota

CITY           SKY/WX    TMP DP  RH WIND       PRES   REMARKS
BAUDETTE       CLOUDY    29  24  82 SW3       29.78F
FLAG ISLAND    CLOUDY    28  25  86 S3        29.77F
INTL FALLS     CLOUDY    29  24  82 W9        29.79R WCI  20
WASKISH        CLOUDY    30  27  86 W7        29.80S WCI  23
BIG FORK       CLOUDY    30  27  86 CALM      29.80R
LONGVILLE      CLOUDY    30  25  80 CALM      29.80S
GRAND RAPIDS   CLOUDY    31  26  82 CALM      29.82R
CRANE LAKE     CLOUDY    30  28  93 CALM      29.81S
ORR            CLOUDY    30  27  86 CALM      29.77S
COOK           CLOUDY    30  28  93 CALM      29.80R
WALKER         CLOUDY    29  24  79 W5        29.80S WCI  24
$$
MNZ012-019>021-037-240500-
   Northeast Minnesota

CITY           SKY/WX    TMP DP  RH WIND       PRES   REMARKS
DULUTH         LGT SNOW  33  31  92 NW5       29.79R FOG     WCI  29
ELY            CLOUDY    32  32 100 CALM      29.78S FOG
HIBBING        CLOUDY    30  25  81 W3        29.79S
EVELETH        CLOUDY    32  29  90 W6        29.81R WCI  27
DULUTH HARBOR  CLOUDY    34  32  93 CALM      29.83S
TWO HARBORS    CLOUDY    37  32  81 CALM      29.78R
SILVER BAY     CLOUDY    34  34 100 CALM      29.78R
GRAND MARAIS     N/A     35  34  96 CALM      29.80R
G MARAIS ARPRT CLOUDY    32  28  86 CALM      29.76S FOG
$$
MNZ029>031-032-039>041-046>048-054>057-064-240500-
   West Central Minnesota

CITY           SKY/WX    TMP DP  RH WIND       PRES   REMARKS
FERGUS FALLS   CLOUDY    30  30 100 CALM      29.87R
WHEATON        CLOUDY    30  27  86 CALM      29.86S
MORRIS         CLOUDY    30  28  93 CALM      29.83R
ALEXANDRIA     CLOUDY    30  25  81 CALM      29.82S
ELBOW LAKE     CLOUDY    30  27  89 SW3       29.83S FOG
WADENA         CLOUDY    28  25  86 W3          N/A
GLENWOOD       CLOUDY    30  25  80 CALM      29.83S
APPLETON       CLOUDY    34  27  75 CALM      29.85R
ORTONVILLE     CLOUDY    30  27  86 CALM      29.84R
MADISON        CLOUDY    34  28  80 CALM      29.84R
WILLMAR        CLOUDY    32  28  86 CALM      29.85S
$$
MNZ033>034-036-042>043-049>051-058-059-240500-
   Central Minnesota

CITY           SKY/WX    TMP DP  RH WIND       PRES   REMARKS
ST CLOUD       CLOUDY    31  25  78 NW3       29.83S
SAUK CENTRE    CLOUDY    30  26  85 CALM      29.83S
PAYNESVILLE    CLOUDY    31  30  96 CALM      29.84S
AITKIN         CLOUDY    34  25  69 CALM      29.81R
PINE RIVER     CLOUDY    30  25  80 CALM      29.84F
BRAINERD       CLOUDY    31  25  78 NW3       29.82S
STAPLES        CLOUDY    28  27  93 CALM      29.82R
LONG PRAIRIE   CLOUDY    30  27  86 CALM      29.82S
LITTLE FALLS   CLOUDY    32  27  80 CALM      29.83S
LITCHFIELD     CLOUDY    32  28  86 CALM      29.85R
BUFFALO        CLOUDY    32  27  81 CALM      29.85R
MAPLE LAKE     CLOUDY    32  28  84 CALM      29.85R
HUTCHINSON     CLOUDY    32  29  88 CALM      29.85S
$$
MNZ037-044-045-052-053-240500-
   East Central Minnesota

CITY           SKY/WX    TMP DP  RH WIND       PRES   REMARKS
PRINCETON      CLOUDY    34  28  80 CALM      29.84R
MORA           CLOUDY    32  28  86 CALM      29.85R
CAMBRIDGE      CLOUDY    34  30  86 CALM      29.82S
RUSH CITY      CLOUDY    32  30  93 CALM      29.83S
MOOSE LAKE     CLOUDY    32  30  93 W3        29.80S
HINCKLEY       FLURRIES  32  32 100 CALM      29.82S
CLOQUET        LGT SNOW  32  30  93 CALM      29.80R
MCGREGOR       CLOUDY    32  30  93 CALM      29.82R
$$
MNZ071>073-080-081-089-090-097-098-240500-
   Southwest Minnesota

CITY           SKY/WX    TMP DP  RH WIND       PRES   REMARKS
MONTEVIDEO     CLOUDY    30  30 100 CALM      29.86R
GRANITE FALLS  CLOUDY    33  31  92 CALM      29.86S
CANBY          CLOUDY    32  29  90 CALM      29.85R
MARSHALL       CLOUDY    31  28  89 SE3       29.84S
REDWOOD FALLS  CLOUDY    33  26  75 CALM      29.84F
OLIVIA         CLOUDY    32  28  86 CALM      29.84S
PIPESTONE      CLOUDY    30  28  93 SE6       29.80R WCI  24
WINDOM         CLOUDY    30  28  93 CALM      29.84S
WORTHINGTON    CLOUDY    30  28  92 E5        29.83S WCI  25
JACKSON        CLOUDY    30  28  93 CALM      29.84R
TRACY          CLOUDY    32  29  89 CALM      29.84S
SLAYTON        CLOUDY    29  28  93 SE3       29.82F
$$
MNZ065>067-074>077-082>085-091>093-240500-
   South Central Minnesota

CITY           SKY/WX    TMP DP  RH WIND       PRES   REMARKS
MANKATO        CLOUDY    31  29  92 CALM      29.86R
NEW ULM        CLOUDY    30  28  93 NW3       29.85S
ST JAMES       CLOUDY    30  28  93 CALM      29.87R
FAIRMONT       CLOUDY    31  30  96 CALM      29.86R
GLENCOE        CLOUDY    33  31  93 CALM      29.84S
OWATONNA       CLOUDY    30  28  93 CALM      29.84S
WASECA         CLOUDY    32  30  93 NW3       29.86S
ALBERT LEA     CLOUDY    32  28  86 CALM      29.84R
$$
MNZ078>079-086>088-094>096-240500-
   Southeast Minnesota

CITY           SKY/WX    TMP DP  RH WIND       PRES   REMARKS
ROCHESTER      CLOUDY    31  27  85 CALM      29.83S
RED WING       CLOUDY    34  28  80 CALM      29.85R
STANTON        CLOUDY    33  29  86 CALM      29.83S
DODGE CENTER   CLOUDY    30  28  93 MISG      29.83S
WINONA         CLOUDY    34  32  93 CALM      29.86R
AUSTIN         CLOUDY    30  27  86 CALM      29.84R
PRESTON        CLOUDY    31  28  88 CALM      29.84S
$$
ABBREVIATIONS USED IN REMARKS
   TC - TEMPERATURES IN CELSIUS
  WCI - WIND CHILL INDEX
   HX - HEAT INDEX
  VSB - VISIBILITY
$$




USA.gov is the U.S. government's official web portal to all federal, state and local government web resources and services.